| time (UTC) | temp F | wind direction | speed knots | gust knots | rain 1hr in | rain 24hr in | rain mn in | humidity % | barometer mb |
| 20260504080358 | 42 | 292 | 4.3 | 6.1 | 0.00 | 0.00 | 0.00 | 60 | 1012.4 |
| 20260504050457 | 46 | 293 | 7.0 | 7.8 | 0.00 | 0.00 | 0.00 | 56 | 1010.6 |
| 20260504045928 | 47 | 293 | 7.0 | 8.7 | 0.00 | 0.00 | 0.00 | 55 | 1010.6 |
| 20260504045427 | 47 | 292 | 6.1 | 10.4 | 0.00 | 0.00 | 0.00 | 54 | 1010.5 |
| 20260504044857 | 48 | 294 | 5.2 | 6.1 | 0.00 | 0.00 | 0.00 | 55 | 1010.5 |
| 20260504044358 | 48 | 311 | 2.6 | 6.1 | 0.00 | 0.00 | 0.00 | 55 | 1010.6 |
| 20260504043827 | 48 | 327 | 4.3 | 5.2 | 0.00 | 0.00 | 0.00 | 54 | 1010.4 |
| 20260504043328 | 49 | 332 | 5.2 | 6.1 | 0.00 | 0.00 | 0.00 | 55 | 1010.3 |
| 20260504042827 | 49 | 340 | 5.2 | 5.2 | 0.00 | 0.00 | 0.00 | 56 | 1010.3 |
| 20260504042258 | 49 | 349 | 7.0 | 7.8 | 0.00 | 0.00 | 0.00 | 57 | 1010.2 |
| 20260504041758 | 49 | 343 | 5.2 | 5.2 | 0.00 | 0.00 | 0.00 | 56 | 1010.2 |
| 20260504041258 | 49 | 341 | 6.1 | 8.7 | 0.00 | 0.00 | 0.00 | 54 | 1013.1 |
| 20260504034927 | 50 | 10 | 8.7 | 10.4 | 0.00 | 0.00 | 0.00 | 50 | 1009.6 |
| 20260504034427 | 50 | 9 | 7.8 | 10.4 | 0.00 | 0.00 | 0.00 | 51 | 1009.6 |
| 20260504033857 | 51 | 3 | 8.7 | 10.4 | 0.00 | 0.00 | 0.00 | 50 | 1009.7 |
| 20260504033357 | 51 | 1 | 10.4 | 10.4 | 0.00 | 0.00 | 0.00 | 50 | 1009.4 |
| 20260504032835 | 51 | 9 | 8.7 | 10.4 | 0.00 | 0.00 | 0.00 | 49 | 1009.2 |
| 20260504032335 | 51 | 14 | 8.7 | 11.3 | 0.00 | 0.00 | 0.00 | 49 | 1009.0 |
| 20260504031805 | 51 | 9 | 7.8 | 10.4 | 0.00 | 0.00 | 0.00 | 47 | 1009.1 |
| 20260504031235 | 52 | 8 | 10.4 | 10.4 | 0.00 | 0.00 | 0.00 | 46 | 1009.0 |
| 20260504030735 | 52 | 12 | 11.3 | 14.8 | 0.00 | 0.00 | 0.00 | 46 | 1008.9 |
| 20260504030235 | 52 | 10 | 13.0 | 14.8 | 0.00 | 0.00 | 0.00 | 44 | 1008.8 |
| 20260504025705 | 53 | 9 | 13.9 | 17.4 | 0.00 | 0.00 | 0.00 | 44 | 1008.8 |
| 20260504025135 | 53 | 0 | 13.9 | 13.9 | 0.00 | 0.00 | 0.00 | 43 | 1008.5 |
| 20260504024635 | 53 | 11 | 14.8 | 17.4 | 0.00 | 0.00 | 0.00 | 43 | 1008.5 |
| 20260504024105 | 54 | 9 | 13.9 | 15.6 | 0.00 | 0.00 | 0.00 | 43 | 1008.4 |
| 20260504023605 | 54 | 13 | 13.9 | 15.6 | 0.00 | 0.00 | 0.00 | 43 | 1008.3 |
| 20260504023035 | 54 | 2 | 14.8 | 19.1 | 0.00 | 0.00 | 0.00 | 42 | 1008.2 |
| 20260504022505 | 54 | 9 | 14.8 | 19.1 | 0.00 | 0.00 | 0.00 | 41 | 1008.0 |
| 20260504022005 | 55 | 6 | 13.9 | 21.7 | 0.00 | 0.00 | 0.00 | 40 | 1008.1 |
| 20260504021505 | 55 | 5 | 15.6 | 20.0 | 0.00 | 0.00 | 0.00 | 40 | 1007.9 |
| 20260504021005 | 55 | 15 | 15.6 | 21.7 | 0.00 | 0.00 | 0.00 | 39 | 1007.7 |
| 20260504020435 | 56 | 352 | 15.6 | 20.0 | 0.00 | 0.00 | 0.00 | 38 | 1007.8 |
| 20260504015935 | 56 | 355 | 19.1 | 20.9 | 0.00 | 0.00 | 0.00 | 37 | 1007.7 |
| 20260504015405 | 56 | 4 | 14.8 | 19.1 | 0.00 | 0.00 | 0.00 | 38 | 1007.7 |
| 20260504014835 | 56 | 1 | 14.8 | 20.0 | 0.00 | 0.00 | 0.00 | 39 | 1007.5 |
| 20260504014335 | 56 | 4 | 14.8 | 18.2 | 0.00 | 0.00 | 0.00 | 38 | 1007.4 |
| 20260504013835 | 57 | 3 | 19.1 | 22.6 | 0.00 | 0.00 | 0.00 | 37 | 1007.3 |
| 20260504013335 | 57 | 355 | 17.4 | 21.7 | 0.00 | 0.00 | 0.00 | 38 | 1007.2 |
| 20260504012805 | 57 | 2 | 14.8 | 18.2 | 0.00 | 0.00 | 0.00 | 37 | 1007.1 |
| 20260504012235 | 57 | 4 | 17.4 | 19.1 | 0.00 | 0.00 | 0.00 | 36 | 1007.0 |
| 20260504011705 | 57 | 3 | 20.0 | 22.6 | 0.00 | 0.00 | 0.00 | 36 | 1006.9 |
| 20260504011205 | 57 | 5 | 17.4 | 20.0 | 0.00 | 0.00 | 0.00 | 37 | 1006.9 |
| 20260504010705 | 57 | 358 | 19.1 | 20.9 | 0.00 | 0.00 | 0.00 | 38 | 1006.9 |
| 20260504010135 | 57 | 7 | 14.8 | 17.4 | 0.00 | 0.00 | 0.00 | 37 | 1006.7 |
| 20260504005605 | 58 | 0 | 15.6 | 19.1 | 0.00 | 0.00 | 0.00 | 38 | 1006.7 |
| 20260504005035 | 57 | 3 | 19.1 | 21.7 | 0.00 | 0.00 | 0.00 | 36 | 1006.7 |
| 20260504004535 | 58 | 9 | 15.6 | 19.1 | 0.00 | 0.00 | 0.00 | 37 | 1006.7 |
| 20260504004005 | 58 | 12 | 15.6 | 19.1 | 0.00 | 0.00 | 0.00 | 37 | 1006.6 |
| 20260504003505 | 58 | 12 | 13.9 | 20.9 | 0.00 | 0.00 | 0.00 | 36 | 1006.8 |
| 20260504002935 | 58 | 16 | 14.8 | 19.1 | 0.00 | 0.00 | 0.00 | 36 | 1006.7 |
| 20260504002435 | 58 | 11 | 17.4 | 21.7 | 0.00 | 0.00 | 0.00 | 36 | 1006.6 |
| 20260504001905 | 58 | 12 | 14.8 | 24.3 | 0.00 | 0.00 | 0.00 | 36 | 1006.5 |
| 20260504001335 | 58 | 23 | 17.4 | 17.4 | 0.00 | 0.00 | 0.00 | 35 | 1006.3 |
| 20260504000835 | 59 | 14 | 20.9 | 26.9 | 0.00 | 0.00 | 0.00 | 35 | 1006.3 |
| 20260504000305 | 59 | 16 | 13.9 | 22.6 | 0.00 | 0.00 | 0.00 | 36 | 1006.3 |
| 20260503235735 | 59 | 33 | 17.4 | 22.6 | 0.00 | 0.00 | 0.00 | 35 | 1006.0 |
| 20260503235235 | 60 | 31 | 18.2 | 21.7 | 0.00 | 0.00 | 0.00 | 34 | 1006.1 |
| 20260503234735 | 61 | 19 | 18.2 | 24.3 | 0.00 | 0.00 | 0.00 | 34 | 1006.2 |
| 20260503234205 | 61 | 29 | 14.8 | 24.3 | 0.00 | 0.00 | 0.00 | 34 | 1006.2 |
| 20260503233705 | 62 | 24 | 15.6 | 21.7 | 0.00 | 0.00 | 0.00 | 33 | 1006.3 |
| 20260503233135 | 62 | 17 | 15.6 | 22.6 | 0.00 | 0.00 | 0.00 | 33 | 1006.4 |
| 20260503232605 | 62 | 27 | 14.8 | 22.6 | 0.00 | 0.00 | 0.00 | 32 | 1006.3 |
| 20260503232035 | 63 | 16 | 15.6 | 17.4 | 0.00 | 0.00 | 0.00 | 31 | 1006.2 |
| 20260503231535 | 63 | 20 | 13.0 | 17.4 | 0.00 | 0.00 | 0.00 | 31 | 1006.2 |
| 20260503231005 | 64 | 1 | 15.6 | 17.4 | 0.00 | 0.00 | 0.00 | 32 | 1006.0 |
| 20260503230505 | 64 | 346 | 14.8 | 17.4 | 0.00 | 0.00 | 0.00 | 32 | 1005.9 |
| 20260503225935 | 63 | 342 | 13.0 | 17.4 | 0.00 | 0.00 | 0.00 | 31 | 1005.9 |
| 20260503225435 | 63 | 338 | 13.9 | 15.6 | 0.00 | 0.00 | 0.00 | 30 | 1005.8 |
| 20260503224935 | 65 | 353 | 15.6 | 22.6 | 0.00 | 0.00 | 0.00 | 31 | 1005.7 |
| 20260503224435 | 65 | 5 | 18.2 | 20.0 | 0.00 | 0.00 | 0.00 | 30 | 1005.6 |
| 20260503223935 | 65 | 359 | 14.8 | 17.4 | 0.00 | 0.00 | 0.00 | 31 | 1005.7 |
| 20260503223435 | 65 | 353 | 20.0 | 25.2 | 0.00 | 0.00 | 0.00 | 30 | 1005.6 |
| 20260503222905 | 65 | 348 | 13.0 | 18.2 | 0.00 | 0.00 | 0.00 | 31 | 1005.6 |
| 20260503222335 | 65 | 344 | 15.6 | 17.4 | 0.00 | 0.00 | 0.00 | 30 | 1005.6 |
| 20260503221835 | 66 | 352 | 18.2 | 20.9 | 0.00 | 0.00 | 0.00 | 29 | 1005.5 |
| 20260503221305 | 66 | 328 | 14.8 | 19.1 | 0.00 | 0.00 | 0.00 | 29 | 1005.5 |
| 20260503220805 | 66 | 346 | 19.1 | 22.6 | 0.00 | 0.00 | 0.00 | 29 | 1005.4 |
| 20260503220235 | 66 | 344 | 14.8 | 18.2 | 0.00 | 0.00 | 0.00 | 29 | 1005.4 |
| 20260503215705 | 66 | 355 | 17.4 | 22.6 | 0.00 | 0.00 | 0.00 | 29 | 1005.6 |
| 20260503215135 | 66 | 344 | 17.4 | 22.6 | 0.00 | 0.00 | 0.00 | 28 | 1005.6 |
| 20260503214605 | 66 | 339 | 15.6 | 19.1 | 0.00 | 0.00 | 0.00 | 28 | 1005.5 |
| 20260503214105 | 66 | 338 | 18.2 | 20.9 | 0.00 | 0.00 | 0.00 | 28 | 1005.6 |
| 20260503213605 | 66 | 339 | 15.6 | 20.0 | 0.00 | 0.00 | 0.00 | 28 | 1005.5 |
| 20260503213105 | 66 | 347 | 13.9 | 17.4 | 0.00 | 0.00 | 0.00 | 28 | 1005.6 |
| 20260503212535 | 67 | 346 | 13.0 | 17.4 | 0.00 | 0.00 | 0.00 | 27 | 1005.7 |
| 20260503212035 | 66 | 327 | 12.2 | 15.6 | 0.00 | 0.00 | 0.00 | 28 | 1005.7 |
| 20260503211535 | 67 | 334 | 12.2 | 14.8 | 0.00 | 0.00 | 0.00 | 26 | 1005.7 |
| 20260503211006 | 66 | 349 | 12.2 | 18.2 | 0.00 | 0.00 | 0.00 | 29 | 1005.8 |
| 20260503210505 | 66 | 341 | 17.4 | 21.7 | 0.00 | 0.00 | 0.00 | 28 | 1005.9 |
| 20260503210006 | 67 | 329 | 13.9 | 20.9 | 0.00 | 0.00 | 0.00 | 28 | 1005.7 |
| 20260503205505 | 66 | 323 | 17.4 | 17.4 | 0.00 | 0.00 | 0.00 | 29 | 1005.9 |
| 20260503204935 | 67 | 307 | 12.2 | 22.6 | 0.00 | 0.00 | 0.00 | 28 | 1005.8 |
| 20260503204405 | 67 | 299 | 14.8 | 22.6 | 0.00 | 0.00 | 0.00 | 28 | 1005.8 |
| 20260503203836 | 67 | 327 | 14.8 | 18.2 | 0.00 | 0.00 | 0.00 | 29 | 1006.0 |
| 20260503203305 | 66 | 321 | 11.3 | 14.8 | 0.00 | 0.00 | 0.00 | 29 | 1005.9 |
| 20260503202805 | 66 | 329 | 11.3 | 13.0 | 0.00 | 0.00 | 0.00 | 29 | 1006.0 |
| 20260503202306 | 66 | 322 | 13.9 | 18.2 | 0.00 | 0.00 | 0.00 | 29 | 1005.9 |
| 20260503201735 | 66 | 326 | 12.2 | 18.2 | 0.00 | 0.00 | 0.00 | 31 | 1006.0 |
| 20260503201236 | 65 | 314 | 12.2 | 17.4 | 0.00 | 0.00 | 0.00 | 32 | 1005.9 |
| 20260503200736 | 66 | 324 | 12.2 | 18.2 | 0.00 | 0.00 | 0.00 | 31 | 1006.0 |
| 20260503200206 | 66 | 304 | 13.9 | 22.6 | 0.00 | 0.00 | 0.00 | 31 | 1005.9 |
| 20260503195705 | 66 | 318 | 11.3 | 17.4 | 0.00 | 0.00 | 0.00 | 31 | 1005.9 |
| 20260503195206 | 66 | 338 | 14.8 | 20.0 | 0.00 | 0.00 | 0.00 | 31 | 1005.9 |
| 20260503194706 | 65 | 336 | 18.2 | 22.6 | 0.00 | 0.00 | 0.00 | 32 | 1005.7 |
| 20260503194206 | 66 | 336 | 18.2 | 20.0 | 0.00 | 0.00 | 0.00 | 31 | 1005.7 |
| 20260503193636 | 65 | 339 | 19.1 | 22.6 | 0.00 | 0.00 | 0.00 | 33 | 1005.7 |
| 20260503193136 | 66 | 336 | 13.9 | 15.6 | 0.00 | 0.00 | 0.00 | 32 | 1005.8 |
| 20260503192605 | 66 | 335 | 13.0 | 21.7 | 0.00 | 0.00 | 0.00 | 31 | 1005.7 |
| 20260503192036 | 67 | 332 | 12.2 | 20.0 | 0.00 | 0.00 | 0.00 | 31 | 1005.7 |
| 20260503191535 | 67 | 319 | 13.0 | 17.4 | 0.00 | 0.00 | 0.00 | 30 | 1005.7 |
| 20260503191006 | 67 | 333 | 13.9 | 22.6 | 0.00 | 0.00 | 0.00 | 29 | 1005.6 |
| 20260503190506 | 67 | 325 | 17.4 | 20.9 | 0.00 | 0.00 | 0.00 | 29 | 1005.6 |
| 20260503185936 | 68 | 329 | 18.2 | 22.6 | 0.00 | 0.00 | 0.00 | 29 | 1005.6 |
| 20260503185436 | 67 | 329 | 14.8 | 21.7 | 0.00 | 0.00 | 0.00 | 30 | 1005.5 |
| 20260503184936 | 67 | 322 | 13.0 | 20.0 | 0.00 | 0.00 | 0.00 | 30 | 1005.7 |
| 20260503184436 | 67 | 309 | 13.9 | 22.6 | 0.00 | 0.00 | 0.00 | 29 | 1005.7 |
| 20260503183906 | 67 | 324 | 14.8 | 17.4 | 0.00 | 0.00 | 0.00 | 28 | 1005.8 |
| 20260503183336 | 67 | 306 | 12.2 | 17.4 | 0.00 | 0.00 | 0.00 | 30 | 1005.8 |
| 20260503182836 | 66 | 313 | 15.6 | 17.4 | 0.00 | 0.00 | 0.00 | 30 | 1005.8 |
| 20260503182306 | 66 | 301 | 12.2 | 22.6 | 0.00 | 0.00 | 0.00 | 30 | 1005.8 |
| 20260503181806 | 66 | 295 | 17.4 | 24.3 | 0.00 | 0.00 | 0.00 | 29 | 1005.8 |
| 20260503181306 | 66 | 321 | 13.9 | 20.0 | 0.00 | 0.00 | 0.00 | 30 | 1005.9 |
| 20260503180806 | 67 | 306 | 13.0 | 22.6 | 0.00 | 0.00 | 0.00 | 29 | 1006.0 |
| 20260503180236 | 66 | 325 | 13.9 | 19.1 | 0.00 | 0.00 | 0.00 | 29 | 1005.9 |
| 20260503175736 | 66 | 302 | 13.0 | 17.4 | 0.00 | 0.00 | 0.00 | 29 | 1006.1 |
| 20260503175206 | 66 | 315 | 13.0 | 18.2 | 0.00 | 0.00 | 0.00 | 30 | 1006.2 |
| 20260503174706 | 66 | 291 | 22.6 | 31.3 | 0.00 | 0.00 | 0.00 | 30 | 1006.3 |
| 20260503174206 | 66 | 312 | 14.8 | 22.6 | 0.00 | 0.00 | 0.00 | 30 | 1006.3 |
| 20260503173636 | 66 | 313 | 13.9 | 19.1 | 0.00 | 0.00 | 0.00 | 30 | 1006.4 |
| 20260503173136 | 65 | 290 | 18.2 | 24.3 | 0.00 | 0.00 | 0.00 | 31 | 1006.5 |
| 20260503172636 | 65 | 284 | 17.4 | 20.9 | 0.00 | 0.00 | 0.00 | 31 | 1006.5 |
| 20260503172106 | 65 | 280 | 20.0 | 26.1 | 0.00 | 0.00 | 0.00 | 31 | 1006.5 |
| 20260503171536 | 65 | 289 | 15.6 | 22.6 | 0.00 | 0.00 | 0.00 | 31 | 1006.5 |
| 20260503171006 | 65 | 307 | 17.4 | 20.9 | 0.00 | 0.00 | 0.00 | 31 | 1006.6 |
| 20260503170506 | 65 | 296 | 12.2 | 17.4 | 0.00 | 0.00 | 0.00 | 32 | 1006.8 |
| 20260503160206 | 61 | 282 | 13.0 | 15.6 | 0.00 | 0.00 | 0.00 | 36 | 1007.4 |
| 20260503150836 | 58 | 288 | 12.2 | 13.0 | 0.00 | 0.00 | 0.00 | 39 | 1007.8 |
| 20260503150336 | 58 | 293 | 13.0 | 17.4 | 0.00 | 0.00 | 0.00 | 38 | 1007.9 |
| 20260503140136 | 50 | 269 | 10.4 | 14.8 | 0.00 | 0.00 | 0.00 | 50 | 1008.2 |
| 20260503131406 | 47 | 275 | 8.7 | 12.2 | 0.00 | 0.00 | 0.00 | 56 | 1008.1 |
| 20260503130906 | 47 | 271 | 7.8 | 10.4 | 0.00 | 0.00 | 0.00 | 57 | 1008.1 |
| 20260503130336 | 47 | 265 | 7.8 | 8.7 | 0.00 | 0.00 | 0.00 | 57 | 1008.1 |
| 20260503110706 | 44 | 273 | 8.7 | 11.3 | 0.00 | 0.00 | 0.00 | 64 | 1008.7 |
| 20260503110206 | 44 | 267 | 10.4 | 12.2 | 0.00 | 0.00 | 0.00 | 64 | 1008.6 |
| 20260503090206 | 51 | 274 | 10.4 | 12.2 | 0.00 | 0.00 | 0.00 | 57 | 1008.3 |
| 20260503081436 | 53 | 246 | 12.2 | 15.6 | 0.00 | 0.00 | 0.00 | 56 | 1008.3 |
| 20260503080906 | 53 | 234 | 13.0 | 15.6 | 0.00 | 0.00 | 0.00 | 56 | 1008.2 |